Wind_Speed
7 11 9 6 8 8 9 10 11 12 11 12 13 14 13 13 13 12 13 13 14 14 14 14 12 11 9 9 12 13 9 9 10 9 8 7 6 6 5 6 6 6 7 6 7 9 10 9 8 8 8 7 8 10 11 12 12 12 12 12 12 11 11 10 10 11 10 10 9 9 10 10 11 12 13 14 14 13 12 11 11 10 11 13 15
7 11 10 7 8 9 10 12 13 13 13 14 15 15 14 13 13 13 14 13 14 14 14 13 11 10 10 7 9 10 8 8 9 9 8 7 6 6 6 6 6 7 7 6 7 8 8 8 9 9 8 8 9 10 11 12 12 12 13 13 12 11 10 9 9 10 10 10 9 9 10 11 13 14 14 14 13 12 11 12 12 13 14 16 17
9 10 10 9 10 11 12 13 14 14 14 14 15 15 14 14 13 13 13 13 13 13 11 11 10 9 9 8 8 8 7 7 8 8 8 7 7 6 6 6 7 7 6 7 8 7 7 8 9 9 9 9 9 10 10 11 12 13 13 13 12 11 10 9 9 10 10 10 9 9 11 13 15 15 14 13 13 12 13 14 15 16 16 17 17
11 11 10 10 10 11 12 13 14 14 15 15 15 15 14 14 13 12 12 12 12 11 10 10 10 9 8 7 8 7 6 7 8 9 7 7 7 7 6 6 7 6 6 7 7 7 7 7 8 9 10 9 9 10 10 11 12 12 13 12 12 10 9 8 9 10 10 10 9 10 13 15 15 14 14 13 13 14 14 15 16 17 17 17 16
11 11 11 10 10 10 12 13 14 15 15 15 15 14 15 14 13 12 11 10 10 10 10 9 9 9 7 5 6 6 6 7 8 9 7 7 7 7 7 6 6 6 6 7 7 7 7 7 8 9 10 10 10 10 10 10 11 11 12 12 11 10 9 8 9 10 10 9 9 12 14 15 15 14 14 14 14 14 15 16 17 17 16 16 15
11 11 11 11 11 10 11 12 13 13 14 15 15 14 14 14 13 12 11 10 9 9 9 8 6 7 6 4 5 5 6 7 8 8 7 7 6 6 6 6 7 7 6 7 7 7 7 7 8 9 10 10 10 10 10 10 10 10 10 11 10 9 8 9 10 10 9 9 11 13 14 14 14 14 15 15 15 14 15 15 16 16 16 15 14
12 10 10 11 11 10 10 11 12 11 12 13 13 13 13 13 12 12 11 10 9 8 8 6 5 5 5 4 5 5 6 6 8 7 7 7 7 6 6 6 7 7 7 7 7 7 6 7 8 9 9 9 10 10 9 9 9 9 9 10 9 9 9 9 10 9 9 10 12 14 14 14 14 14 15 15 15 14 14 15 15 15 14 14 13
12 11 9 9 10 9 9 10 11 10 10 10 11 11 11 11 11 11 11 11 10 9 8 7 5 5 5 5 5 7 7 6 7 7 7 7 7 7 6 6 8 8 7 7 6 6 6 7 8 9 9 9 9 9 9 9 9 8 9 9 9 9 9 9 9 8 9 11 13 14 13 13 14 14 15 15 14 14 14 13 13 13 13 12 12
12 11 10 9 9 9 9 10 10 10 9 9 9 10 10 10 10 10 10 10 10 9 9 8 7 6 5 6 6 8 8 6 7 7 7 8 8 8 8 8 8 9 8 7 7 6 7 8 9 9 9 9 9 9 9 8 8 8 8 9 9 9 9 9 8 8 10 11 12 14 13 13 13 14 14 14 13 13 13 12 12 12 12 11 11
11 10 10 10 10 10 10 10 10 10 9 8 8 9 9 9 9 9 9 9 9 9 8 7 8 8 6 6 7 7 8 7 7 8 8 8 8 9 9 9 9 9 8 8 7 7 8 9 9 10 10 9 9 9 9 8 8 7 7 8 9 9 9 8 8 9 11 12 12 13 13 13 13 13 13 13 12 11 11 11 11 11 11 11 11
11 9 8 9 10 10 10 10 9 9 9 8 8 8 8 8 8 8 8 8 8 8 8 8 8 9 7 6 6 7 7 7 8 8 9 8 9 9 10 10 10 9 9 8 8 8 9 10 10 11 10 10 10 9 9 9 8 7 7 8 9 9 8 8 8 9 11 12 12 13 13 12 12 12 12 12 11 11 10 10 10 10 11 12 12
12 10 7 7 7 8 8 8 8 8 8 8 7 8 8 8 8 7 7 7 7 7 7 8 9 9 7 6 6 6 7 7 7 8 8 8 9 10 10 10 10 10 9 8 8 9 10 10 11 11 11 10 10 9 8 9 9 8 8 8 8 8 7 8 9 10 11 12 12 12 12 11 11 11 11 11 11 10 10 10 10 11 12 13 13
11 11 8 7 7 7 7 7 7 7 7 7 7 8 8 8 8 7 6 7 6 6 6 7 8 8 6 6 7 7 7 8 7 8 7 7 7 8 9 10 10 10 9 9 9 9 10 11 12 12 11 10 10 9 9 9 9 9 8 8 8 8 8 8 9 10 11 12 12 12 11 10 10 10 11 12 12 12 11 11 11 11 12 13 13
10 10 9 7 7 6 6 6 6 7 6 6 6 7 6 6 7 7 6 6 6 6 6 7 7 7 7 7 7 7 6 7 8 8 7 7 7 7 8 8 9 9 9 10 10 10 10 10 12 12 11 10 10 9 9 9 9 9 8 8 8 8 8 8 9 10 11 12 12 11 10 10 10 11 12 13 13 13 12 12 12 12 13 13 13
9 9 8 7 7 7 6 6 6 6 5 5 5 6 6 5 6 6 6 6 5 5 5 6 6 7 9 8 6 6 6 7 7 7 8 8 9 9 9 8 7 8 9 10 11 11 10 11 11 11 11 10 9 9 9 9 9 8 8 8 8 8 9 9 10 11 12 12 12 11 11 10 11 13 14 14 14 14 13 13 13 13 14 14 13
7 8 8 7 7 7 6 6 5 5 4 4 4 5 6 6 5 6 6 5 5 5 6 6 7 9 10 9 7 7 7 7 7 7 8 9 9 10 11 10 8 7 8 10 11 11 11 11 11 10 10 9 9 9 9 9 9 8 8 8 8 8 10 10 10 11 12 12 12 12 11 12 13 14 15 14 14 14 13 13 13 13 13 13 13
7 7 7 7 6 6 6 6 5 5 5 5 5 6 5 5 5 6 5 5 6 6 7 8 9 10 10 9 8 8 7 8 8 9 10 10 10 10 10 11 9 7 8 10 12 12 11 12 11 11 10 9 9 9 9 9 9 9 8 8 8 9 11 11 11 12 12 12 13 12 13 14 15 15 15 14 13 13 13 13 13 13 13 13 12
6 7 7 6 6 5 5 5 5 6 6 6 6 6 4 4 6 7 6 6 7 7 8 8 9 11 10 9 9 9 9 9 10 10 10 10 10 10 10 10 9 8 9 11 13 12 12 12 12 11 10 9 9 9 9 9 9 9 9 8 9 9 11 12 11 12 12 13 13 13 14 15 16 15 15 14 13 12 12 12 13 13 13 12 12
6 6 6 6 5 5 4 4 4 4 5 5 6 5 4 5 7 7 7 8 8 8 9 9 10 10 9 9 10 9 10 10 11 10 10 10 10 11 10 10 9 8 10 11 13 13 12 12 12 11 10 9 9 10 10 10 10 9 9 9 10 10 11 12 11 11 12 13 14 14 15 15 15 15 14 13 12 11 12 12 12 12 12 11 10
5 5 5 4 4 4 4 3 3 3 5 5 5 4 5 6 7 7 8 8 9 9 10 10 10 10 9 9 9 9 10 11 12 11 11 11 11 11 11 11 9 9 10 11 12 12 12 12 12 12 10 9 9 10 10 10 10 9 9 9 10 11 11 11 11 12 13 14 15 15 15 15 15 14 13 12 11 11 11 11 11 11 10 10 9
3 4 3 3 3 3 3 2 2 3 4 4 4 5 6 6 7 7 8 9 9 9 10 10 9 9 9 9 9 9 10 11 13 13 13 12 11 12 12 11 10 9 10 11 11 12 12 12 12 11 10 9 9 9 9 10 10 9 9 10 11 11 11 10 10 12 14 15 15 15 15 14 14 13 12 11 10 10 10 10 10 9 9 8 8
3 3 3 3 3 3 2 1 2 3 4 3 4 5 5 5 6 7 8 9 9 10 10 9 9 10 10 10 10 10 11 12 13 14 14 13 12 12 12 11 10 10 10 10 11 11 12 12 12 11 10 9 9 9 9 9 9 9 9 10 11 10 10 10 11 13 14 15 15 15 14 13 13 12 11 10 9 9 8 8 8 8 8 8 7
2 2 3 3 3 2 1 1 2 3 4 3 3 4 4 4 5 6 7 8 9 10 11 10 10 11 11 11 11 11 12 12 13 15 15 14 13 13 12 11 10 10 10 10 11 11 11 12 12 11 10 9 9 9 9 9 8 8 9 10 11 10 10 10 11 13 14 14 14 14 13 12 12 10 9 9 8 8 8 8 7 7 7 7 7
3 3 3 3 2 1 0 1 3 4 4 2 2 3 3 3 4 4 6 7 8 9 10 11 11 11 11 12 12 11 12 12 13 14 14 14 14 14 12 11 11 11 11 11 11 11 12 12 12 11 10 9 9 9 8 8 8 8 9 10 10 10 10 11 12 13 14 14 14 13 12 11 10 9 8 7 7 7 8 8 7 7 7 6 6
3 3 4 3 3 2 1 2 3 4 4 1 1 2 2 2 2 3 4 6 7 8 8 8 10 11 11 10 11 12 12 13 12 13 14 15 15 14 13 12 12 12 11 11 11 11 12 12 12 11 10 9 9 9 8 7 8 8 9 10 10 10 10 11 12 12 13 13 12 12 11 10 9 7 7 7 7 8 8 7 7 7 7 6 6
3 3 3 3 2 2 2 3 4 4 4 1 0 1 1 1 2 3 4 5 6 8 8 6 8 10 10 9 11 12 13 13 13 14 15 15 16 15 13 12 12 12 11 11 11 11 12 12 11 11 10 10 9 9 7 7 7 9 10 10 10 10 11 11 12 13 12 11 11 11 10 8 7 6 6 7 7 8 7 7 7 7 7 6 6
2 3 3 2 1 1 2 3 4 5 4 2 1 1 2 3 3 3 5 5 5 7 7 5 6 8 9 10 11 12 13 13 13 14 15 16 17 16 14 13 12 12 12 12 12 11 12 12 12 11 11 11 10 8 7 7 8 10 10 11 10 9 10 11 12 13 12 10 10 9 8 7 6 6 7 8 8 8 7 7 8 8 7 7 6
1 2 2 1 1 1 1 2 3 4 3 2 2 1 2 3 4 5 6 6 6 6 6 5 6 7 9 10 11 12 13 14 14 14 16 17 17 16 14 13 13 12 12 13 13 13 12 12 12 12 12 11 10 8 7 7 9 11 10 10 10 10 10 11 11 12 10 9 9 8 7 6 6 7 8 8 8 8 8 8 9 9 8 8 7
1 2 1 1 0 1 1 2 2 2 1 1 1 1 1 3 4 5 6 7 7 6 7 7 7 7 8 10 13 13 14 14 15 15 17 18 18 16 15 14 13 13 13 13 13 13 12 12 13 12 12 10 9 8 8 9 10 11 11 10 10 10 10 10 11 11 10 9 8 7 6 6 7 8 8 9 9 8 9 10 10 10 9 9 8
1 2 1 0 1 0 1 1 1 0 1 1 1 1 2 3 4 5 5 7 7 7 8 8 8 9 10 12 13 14 15 14 15 17 19 20 19 17 15 14 14 14 14 14 13 13 13 13 13 12 11 10 9 8 9 10 10 10 10 10 10 10 10 9 10 10 9 9 7 7 7 7 8 9 9 9 8 9 10 10 10 10 9 9 9
2 2 2 1 1 1 0 0 1 2 2 2 3 2 3 5 5 6 6 7 7 7 8 8 9 11 13 15 14 13 14 15 17 19 20 20 19 17 16 15 15 14 15 14 14 14 13 13 13 11 10 9 9 9 10 11 10 10 10 9 9 9 9 9 9 9 8 8 8 7 8 8 8 8 8 8 8 9 9 9 9 9 9 10 9
3 2 2 2 1 2 1 1 2 3 4 4 4 4 5 6 7 7 7 7 8 8 8 8 9 11 12 13 12 13 15 16 18 20 21 20 19 17 17 16 15 15 15 15 15 14 13 13 11 10 9 8 9 10 10 11 10 10 9 9 9 9 9 9 9 9 8 8 8 8 7 7 7 7 7 7 7 8 8 8 9 9 9 10 9
3 3 3 3 2 2 1 1 3 4 5 5 5 6 6 7 7 8 8 8 8 8 8 8 9 10 11 11 11 14 16 18 19 20 20 20 18 18 17 16 15 15 15 15 15 14 13 11 10 9 8 9 10 11 11 10 10 9 9 8 8 8 9 8 8 8 8 8 8 7 6 6 6 5 5 6 6 6 7 8 8 9 9 9 9
4 4 3 3 3 3 2 2 3 4 5 6 6 7 7 7 7 8 9 9 9 9 9 9 9 10 11 12 13 16 18 19 20 20 20 19 19 18 16 15 15 16 16 16 15 14 12 10 9 8 8 10 11 12 11 10 10 9 9 9 9 8 8 8 8 7 7 7 7 6 5 4 4 3 3 3 4 4 5 6 7 8 8 9 9
4 4 4 4 4 3 3 2 3 4 5 6 7 7 7 7 7 8 9 10 10 10 10 9 10 10 11 13 15 17 19 20 20 20 20 19 18 17 16 16 16 16 16 16 15 13 11 8 8 9 9 11 12 12 11 10 10 9 9 9 9 8 8 8 7 7 7 6 5 4 4 4 3 2 2 2 3 4 4 5 6 7 8 8 9
4 4 4 4 4 4 4 3 2 3 4 5 6 8 8 8 8 9 10 10 10 11 11 11 10 11 13 14 15 17 19 20 20 20 19 18 17 16 16 16 17 17 16 15 13 12 11 8 8 9 10 11 12 12 11 10 9 9 9 9 9 8 7 7 7 6 5 5 3 1 1 2 2 2 3 4 5 5 5 4 5 6 7 8 8
5 4 4 4 4 4 4 4 2 2 3 3 5 7 8 9 8 9 10 11 11 11 12 12 12 12 13 15 16 17 18 19 19 18 17 17 16 15 17 17 17 16 15 13 11 11 10 9 9 9 11 12 12 13 12 10 9 9 9 9 8 8 7 6 6 6 4 3 3 1 1 2 3 4 4 5 5 6 7 6 7 7 7 7 7
5 4 4 4 4 4 4 4 3 2 2 2 3 5 8 9 9 9 10 10 11 12 13 13 13 13 14 15 16 17 17 17 17 16 16 16 15 16 17 17 16 15 13 12 11 10 8 9 9 10 11 13 13 13 12 11 10 9 9 9 8 8 7 6 6 5 5 4 2 1 1 2 4 5 5 5 5 6 8 8 8 7 7 8 7
5 5 5 4 4 4 4 4 4 3 2 3 3 5 7 9 9 10 10 10 11 12 13 14 14 14 14 15 15 16 15 15 15 14 15 16 16 17 18 17 15 14 12 11 10 9 8 8 10 10 11 12 12 13 12 12 11 10 9 9 8 8 7 6 5 4 3 3 2 1 2 3 3 3 5 5 6 7 6 6 8 8 8 8 7
5 5 5 5 4 3 3 4 4 3 3 4 4 5 7 9 10 10 11 11 11 12 13 15 15 15 15 16 15 15 14 14 13 14 15 16 17 17 17 15 14 13 12 11 9 8 8 8 8 9 10 10 11 12 12 12 10 9 9 8 8 7 6 5 5 4 2 2 2 2 3 4 5 5 6 7 7 7 6 6 7 7 7 8 8
5 5 5 5 4 3 3 4 4 4 4 5 6 6 7 9 10 11 11 11 12 13 13 15 15 16 16 16 16 15 14 14 14 15 16 17 17 17 16 14 13 12 11 10 9 8 7 7 7 7 7 8 9 11 11 10 9 9 9 8 7 6 5 5 4 3 1 1 2 3 4 5 6 6 6 7 8 7 7 8 6 5 7 9 10
5 5 6 5 4 3 3 3 4 5 5 5 7 8 8 9 10 11 11 11 12 13 13 14 15 16 16 16 16 15 14 14 15 16 16 17 16 15 14 13 12 11 9 8 8 7 6 7 6 6 6 7 8 9 9 9 8 9 9 8 6 5 5 4 3 2 0 2 3 3 5 6 7 7 7 7 7 8 8 8 7 7 8 9 8
6 6 6 6 5 4 3 3 4 5 5 6 7 8 8 9 10 11 11 12 12 13 13 14 15 15 16 15 15 15 15 15 15 16 16 16 15 14 13 12 10 9 8 7 6 5 5 5 6 6 6 6 6 7 8 7 7 8 8 7 5 4 3 3 2 1 0 2 3 4 5 6 6 8 8 7 7 7 7 8 9 9 9 8 7
6 6 7 7 6 5 4 3 4 5 6 7 7 7 8 9 10 11 12 12 13 13 13 14 14 15 15 15 15 15 15 15 16 16 15 14 13 12 11 10 9 7 7 6 5 4 4 4 5 6 6 6 6 6 6 6 6 6 6 5 4 3 3 2 1 1 1 1 2 3 4 4 5 7 8 8 7 8 9 10 9 8 6 5 6
6 7 7 7 7 6 5 4 4 5 7 8 8 7 7 8 9 10 11 12 13 13 13 14 14 14 15 15 15 15 15 15 15 15 14 13 11 11 10 9 8 7 6 6 5 5 4 4 5 5 6 6 6 6 6 5 5 5 5 4 3 2 2 1 1 1 1 1 0 1 2 3 4 5 6 7 7 8 9 9 8 7 6 7 7
7 8 8 8 7 6 6 6 5 6 7 8 9 9 8 8 9 9 10 11 12 12 13 13 13 14 14 15 15 15 15 15 14 14 12 12 11 10 9 8 7 7 6 6 5 5 4 4 5 5 5 6 6 6 5 4 4 4 4 3 2 1 1 1 1 1 1 0 1 2 2 2 3 4 4 5 6 8 9 9 8 9 9 10 10
8 8 9 8 8 7 7 7 7 6 7 8 9 10 9 9 9 10 10 10 11 11 12 12 12 13 13 14 14 14 14 14 13 12 12 11 11 10 9 8 8 7 7 6 6 5 4 4 4 5 5 5 5 6 5 4 4 4 3 3 2 2 1 1 1 1 1 1 1 1 2 2 2 5 6 6 6 8 9 9 8 8 9 10 10
9 9 9 9 8 8 8 8 8 7 8 9 9 10 10 10 10 10 10 10 10 11 11 11 11 12 12 12 12 12 12 12 12 11 11 10 10 9 9 8 8 7 7 6 6 5 4 4 4 4 5 5 6 6 5 5 4 3 3 3 3 2 1 1 0 1 1 2 2 2 4 3 3 4 6 7 7 7 9 9 8 8 9 9 9
10 10 9 9 9 9 8 9 9 9 9 9 10 10 10 10 10 10 10 10 10 10 10 10 10 10 11 11 11 11 11 11 11 10 10 9 9 9 8 8 8 7 6 6 5 5 4 4 4 5 5 5 6 6 5 5 4 3 3 2 2 2 1 1 1 3 1 3 3 1 3 5 5 5 6 7 7 6 7 7 7 9 12 11 10
11 11 10 9 9 9 9 9 10 10 10 10 10 11 11 11 11 11 11 10 10 10 10 10 10 10 10 10 10 10 10 10 10 10 10 9 9 9 8 8 7 7 6 6 5 5 5 5 5 5 5 5 6 5 5 5 4 4 3 2 2 2 2 2 2 4 3 3 3 3 4 5 5 5 5 6 6 6 7 5 4 9 12 10 8
13 11 11 10 11 10 10 10 10 11 12 11 11 11 11 11 12 11 11 11 10 10 10 10 10 10 10 9 9 10 10 10 10 9 9 9 9 9 8 8 7 7 6 5 5 4 4 5 5 5 5 5 5 5 4 4 3 3 3 3 2 2 2 2 3 3 2 2 2 2 3 3 3 3 2 4 5 5 7 7 5 7 7 7 6
Wind_Direction
128 119 109 114 128 123 117 126 126 121 125 131 140 145 143 143 144 152 158 154 150 149 148 147 148 147 139 138 120 113 127 130 124 125 125 123 119 120 125 122 110 94 82 75 76 77 77 80 83 82 82 85 90 96 99 101 102 104 108 113 116 114 108 101 94 86 79 69 59 60 69 76 80 87 95 99 99 97 96 97 99 104 111 114 117
121 111 106 118 124 118 119 123 121 118 120 123 128 132 131 134 137 143 148 145 143 139 136 136 137 130 116 118 116 113 121 123 123 122 121 121 122 127 127 119 104 89 80 76 79 82 83 86 89 89 91 93 97 101 103 104 105 107 111 116 121 120 114 105 94 85 77 65 57 66 79 85 92 97 99 98 96 96 96 98 102 108 112 114 115
124 115 112 122 121 117 117 118 118 118 119 120 121 123 124 128 133 139 143 143 143 138 129 128 127 117 114 122 119 118 127 128 122 118 120 124 126 122 115 111 101 93 90 84 81 83 85 91 94 93 94 97 103 105 105 105 106 110 115 122 126 124 116 103 89 81 71 60 60 77 90 96 101 103 101 98 97 98 99 102 106 111 113 114 114
123 118 115 119 118 116 115 116 118 120 122 122 122 124 125 128 134 137 141 143 145 142 132 129 130 124 124 127 120 127 143 135 122 119 124 126 124 117 110 108 106 103 99 91 85 82 84 93 97 97 97 102 106 106 105 105 107 111 119 127 130 126 114 99 84 75 66 60 70 88 98 103 106 104 102 100 100 102 105 108 111 113 115 115 115
123 124 123 119 116 116 116 118 118 121 124 124 126 128 130 132 134 134 134 137 140 137 133 134 139 134 124 118 124 141 147 131 122 122 124 124 125 122 116 116 116 112 104 96 91 85 83 91 99 101 105 111 111 108 107 106 108 112 122 129 129 123 110 95 82 70 63 66 83 97 103 107 107 105 103 102 103 105 108 111 113 115 115 114 113
124 129 128 122 119 119 118 119 120 124 124 124 127 129 130 132 134 135 135 133 131 132 133 138 142 128 119 131 144 145 139 129 124 126 129 128 129 129 125 128 123 114 107 100 96 91 90 96 100 104 111 118 116 111 107 105 108 114 122 125 122 116 105 89 76 66 64 79 98 105 107 107 107 105 104 103 104 106 108 110 113 115 115 113 110
126 125 126 125 123 123 122 122 124 127 125 126 131 131 131 130 132 136 137 132 126 129 128 130 130 123 133 158 158 137 134 133 126 127 133 135 136 134 133 131 122 115 110 105 102 99 102 104 104 107 115 118 114 110 106 104 108 116 123 123 119 110 96 81 71 66 74 94 107 108 108 107 106 105 104 104 106 106 107 109 111 113 113 111 107
124 121 125 125 122 127 131 129 128 128 127 129 135 136 135 136 137 136 132 127 124 122 120 126 137 146 151 153 147 132 133 135 129 134 136 138 140 139 139 134 122 118 113 109 106 104 104 103 104 109 115 117 112 107 101 101 104 113 124 123 115 102 89 77 70 72 88 104 109 107 108 107 103 102 103 105 107 107 107 108 109 109 108 106 103
125 126 130 129 133 143 141 135 131 131 133 138 143 142 140 142 143 138 128 125 128 130 131 138 143 141 138 138 140 134 135 138 136 141 141 141 143 141 142 140 129 122 118 114 111 107 102 101 107 113 117 118 111 102 94 93 97 109 119 116 107 95 86 78 75 85 97 106 107 106 107 104 101 100 100 102 104 106 107 107 106 104 102 100 97
129 130 136 142 150 153 146 142 139 140 145 149 153 147 143 144 144 139 131 132 139 144 139 136 132 124 127 136 142 141 138 142 142 142 144 147 147 143 142 139 132 126 120 116 114 109 103 105 113 118 119 117 107 98 93 93 96 107 113 108 100 93 87 82 86 98 103 106 105 106 106 103 100 99 98 100 101 103 104 103 102 99 97 95 93
128 131 147 154 150 147 145 147 148 149 154 158 160 151 145 144 143 140 138 143 145 141 132 128 129 127 136 145 145 145 141 145 148 147 150 153 153 148 143 137 133 131 123 118 119 112 107 110 117 122 120 114 107 99 96 97 100 105 108 103 98 94 91 91 99 106 106 108 109 108 105 103 100 98 97 97 99 100 101 101 101 98 96 95 95
125 133 154 154 139 138 140 147 152 153 160 164 162 154 149 149 146 147 149 148 140 133 129 134 138 134 142 156 157 154 146 148 154 151 153 158 158 151 144 141 139 134 126 123 122 117 116 119 123 125 123 117 111 105 103 103 105 107 106 104 102 99 96 101 110 113 110 111 109 106 103 102 100 98 97 96 97 97 99 100 99 99 99 98 98
126 137 151 147 138 139 140 145 150 151 159 161 158 157 158 156 151 160 163 151 146 145 146 151 149 141 153 175 172 166 153 149 155 152 152 156 151 144 141 144 142 134 130 128 124 122 121 123 126 127 127 123 116 113 110 107 107 110 110 109 108 105 104 109 115 113 110 109 106 103 103 103 101 97 95 95 96 97 98 99 99 99 99 99 98
134 141 146 147 146 148 150 155 155 154 159 153 153 159 164 166 157 170 177 164 167 163 163 166 155 153 179 194 178 171 163 152 158 156 152 149 144 139 138 142 138 133 133 131 127 125 121 120 125 129 131 127 120 117 111 107 108 112 115 115 111 108 110 114 115 111 110 108 104 105 106 104 100 98 97 98 99 99 100 99 98 98 97 96 95
142 145 146 152 155 157 162 163 165 164 162 154 157 164 174 187 180 186 191 184 187 177 180 181 170 176 193 197 182 178 176 165 164 158 152 149 149 148 145 142 136 133 134 133 128 125 121 119 125 130 130 127 123 116 110 109 111 116 119 117 113 113 116 117 115 112 112 109 107 107 107 103 102 102 101 102 102 102 101 99 97 96 95 94 92
145 146 148 154 158 161 166 165 166 169 167 165 174 179 184 196 201 205 202 198 205 196 200 205 198 200 199 194 187 190 186 177 172 161 157 157 155 156 154 145 136 138 139 134 127 122 121 122 128 130 128 128 123 116 113 116 118 120 120 117 116 120 120 120 118 116 115 112 109 108 107 107 107 106 105 104 104 102 101 99 97 96 93 91 89
146 146 148 150 154 158 162 161 161 168 171 177 192 196 192 195 209 219 208 204 212 205 206 210 212 213 204 193 191 194 191 182 178 171 166 161 157 160 156 141 134 144 145 135 126 122 123 127 132 133 131 131 127 122 122 124 123 122 120 119 122 125 123 122 122 118 117 113 110 109 110 111 110 108 106 105 104 102 101 98 96 93 91 89 86
141 142 142 141 144 149 152 155 163 173 173 185 204 203 194 200 215 222 212 209 210 206 205 202 208 215 202 192 193 193 195 189 181 178 172 163 158 160 151 136 138 150 148 136 128 124 124 130 135 133 133 132 130 127 128 128 125 122 121 123 124 126 124 125 124 120 116 112 110 111 113 113 111 109 106 105 104 102 101 98 95 93 90 89 85
134 132 132 132 133 134 139 150 167 176 175 195 214 200 187 200 215 218 210 209 208 205 204 198 203 209 198 193 195 194 199 195 184 179 174 167 162 159 151 144 150 154 148 137 129 125 126 132 135 133 132 133 131 129 131 129 124 122 123 125 125 125 125 125 125 118 114 111 112 114 116 115 112 109 107 105 104 102 101 99 97 94 92 90 85
129 124 124 125 124 122 129 145 162 169 171 193 214 203 198 203 211 218 217 215 209 204 204 204 203 200 197 195 192 192 203 198 183 181 179 173 165 157 154 153 155 153 146 137 130 126 129 134 135 133 132 132 129 128 130 127 124 124 125 126 125 127 127 126 124 117 114 115 116 117 118 115 112 109 107 105 104 102 101 100 98 95 93 88 82
122 120 122 121 119 120 127 145 168 185 181 189 204 209 214 212 214 219 220 220 214 210 209 207 202 195 194 195 190 190 201 196 181 181 182 175 165 157 157 156 153 152 146 137 130 128 131 135 136 133 131 128 126 127 129 126 126 126 127 127 125 128 129 125 122 116 116 118 118 118 118 114 111 108 106 104 102 100 98 96 93 91 87 82 76
124 121 119 115 115 121 134 167 194 211 206 195 203 215 222 223 227 227 227 225 218 217 217 207 201 200 195 193 195 195 198 193 183 181 178 172 164 160 159 156 152 150 144 137 132 131 132 135 136 132 127 124 124 127 127 126 125 125 128 126 125 130 129 124 120 117 118 119 120 120 118 114 110 107 104 101 96 93 90 85 82 79 76 73 68
100 92 88 91 98 110 135 200 216 223 219 202 214 229 229 229 233 232 231 231 224 221 216 208 207 206 201 197 198 197 195 190 186 181 172 168 167 163 161 155 152 149 144 141 135 132 131 134 134 129 123 122 125 127 128 126 122 123 127 126 128 132 128 124 121 119 120 121 122 121 117 112 108 104 100 94 86 80 75 71 69 68 65 65 64
64 59 60 64 65 43 121 225 234 236 237 215 222 238 226 217 218 224 224 222 226 225 214 205 206 209 203 197 196 194 193 190 190 182 169 168 168 165 163 157 154 151 148 142 135 132 132 134 133 128 124 124 127 128 129 126 123 125 128 128 132 133 128 125 122 119 121 123 124 121 116 111 106 101 92 82 75 68 62 59 58 58 58 58 58
48 49 44 34 24 357 310 262 262 258 259 252 201 226 218 193 182 205 210 209 215 222 219 190 181 196 197 193 194 190 189 191 190 181 171 169 168 167 165 161 157 153 149 141 134 133 133 133 132 127 124 126 130 130 129 126 125 128 130 132 132 133 131 126 122 120 122 124 124 120 115 110 104 94 82 68 60 56 52 49 49 48 49 51 54
37 40 33 15 6 335 297 285 288 289 288 296 10 140 152 141 155 180 186 195 199 203 214 186 166 185 189 186 190 185 183 187 183 175 170 167 165 168 167 162 159 154 148 140 135 137 136 134 131 127 128 132 133 130 127 124 127 130 132 136 136 136 131 126 123 124 126 127 124 120 115 109 99 85 68 56 49 45 42 38 39 38 39 44 48
33 32 23 13 353 289 278 286 297 300 298 300 320 52 107 122 136 152 160 177 185 189 198 184 169 178 178 178 180 177 177 178 176 171 169 166 164 166 167 163 159 153 149 143 141 142 140 135 134 135 136 135 132 127 125 127 131 133 137 138 138 136 130 128 126 127 131 129 124 119 113 105 89 71 57 48 42 36 31 28 28 30 30 33 37
38 29 17 19 319 285 271 276 296 299 294 294 315 18 77 105 125 137 146 160 170 183 180 161 162 165 163 169 170 167 167 167 168 169 167 165 164 165 165 162 158 155 152 147 144 143 141 137 138 140 137 134 131 129 128 132 135 137 141 141 141 139 132 130 127 127 132 127 122 117 107 94 74 60 52 45 38 29 22 21 22 24 22 23 28
53 44 25 41 280 320 308 288 294 297 280 277 338 28 56 85 104 124 136 146 152 163 158 150 162 159 149 159 163 157 157 161 163 163 163 162 164 165 162 159 159 158 153 148 144 142 141 140 141 140 137 135 134 133 132 134 139 141 144 145 145 140 133 132 130 131 133 124 117 108 94 77 64 54 47 40 32 22 15 16 17 17 15 16 20
77 65 68 102 109 94 311 296 286 207 154 126 102 68 68 85 92 109 122 132 138 145 144 139 147 148 142 153 158 151 151 158 160 160 160 160 162 162 160 160 162 160 154 148 144 143 143 143 143 140 139 140 137 136 138 139 143 146 147 147 144 139 136 134 127 128 130 121 111 97 83 68 59 50 42 33 23 16 12 11 11 9 8 9 13
97 89 108 130 113 98 99 214 128 136 138 122 111 97 88 93 99 108 115 124 130 136 140 130 130 134 134 142 150 151 156 160 161 160 159 159 160 159 159 164 165 160 154 148 145 145 146 145 143 142 143 142 140 140 142 141 144 147 149 148 145 143 140 134 127 129 127 115 104 88 75 64 56 48 37 28 18 14 10 8 6 3 4 6 10
108 110 116 126 115 96 99 129 123 128 132 126 117 108 100 101 105 111 115 122 128 134 142 141 136 135 133 137 144 153 161 163 161 158 157 158 159 159 160 166 166 158 152 148 146 146 146 147 145 145 145 144 144 145 145 143 143 147 150 151 149 147 143 135 132 134 126 109 100 88 77 67 56 46 35 27 18 13 7 4 4 1 3 5 9
114 115 118 122 112 106 121 128 126 131 130 125 120 113 108 108 110 114 117 118 123 127 133 139 141 140 139 137 136 144 155 160 159 156 156 157 158 159 161 165 164 155 151 149 147 146 147 148 148 149 148 150 152 149 148 144 143 149 154 157 156 153 147 140 137 135 126 114 104 94 84 72 61 48 35 27 18 10 6 5 4 4 5 6 9
115 117 121 125 119 113 127 137 132 133 131 126 120 116 115 116 118 120 120 120 122 123 123 129 136 137 139 138 134 138 145 151 153 153 155 158 157 159 161 163 160 154 152 150 148 148 149 150 152 154 153 155 155 152 150 146 147 155 159 162 164 160 153 149 146 140 135 128 119 117 115 104 84 60 40 27 14 7 10 11 8 8 8 7 9
121 128 133 132 127 120 124 138 138 133 133 131 123 120 119 120 126 126 126 126 126 125 123 126 133 136 139 139 138 138 142 145 149 151 155 158 157 158 161 160 156 153 152 151 151 148 145 150 156 155 156 158 157 154 153 150 152 160 162 165 170 166 160 158 154 151 149 138 131 136 134 123 102 76 56 16 11 17 15 18 15 13 12 9 9
131 138 142 136 129 124 123 130 142 136 135 135 129 125 122 121 126 129 130 131 131 129 128 127 130 136 140 141 141 141 143 146 149 152 155 156 155 157 160 157 153 152 152 151 150 147 143 153 162 157 158 161 160 157 154 153 154 159 166 171 172 168 164 164 160 163 158 139 138 142 101 93 65 52 37 359 352 5 9 19 26 20 16 10 7
137 141 141 137 133 128 126 129 136 139 136 137 132 126 122 119 121 126 131 134 135 134 132 131 132 136 141 143 143 144 146 148 151 153 155 154 154 157 157 154 153 152 152 151 149 149 149 155 164 162 162 165 165 162 157 156 157 161 169 173 171 167 168 170 166 164 155 143 154 142 89 52 21 9 16 5 341 348 2 10 20 22 18 13 3
137 142 143 136 133 129 125 126 125 131 135 134 136 126 122 121 120 122 128 134 137 139 138 136 136 137 141 143 144 147 149 150 153 154 155 153 152 155 155 152 152 151 149 149 150 155 155 156 165 167 169 170 170 167 163 161 161 164 170 172 170 169 172 172 167 164 157 153 154 107 87 67 28 351 360 14 353 355 7 4 6 16 17 13 1
135 143 147 139 134 134 130 127 126 131 133 133 137 130 125 124 126 125 127 131 135 140 143 142 140 141 143 145 146 149 151 153 156 157 156 154 153 154 154 151 151 149 147 148 151 158 163 167 170 172 176 178 174 172 168 165 166 168 171 171 170 173 173 167 165 168 156 134 118 67 29 43 41 359 358 11 7 8 15 9 4 12 15 8 360
138 146 151 146 139 140 136 132 132 136 138 140 140 137 132 129 130 131 131 133 135 139 143 145 145 145 147 149 150 153 155 158 159 159 157 155 154 154 153 151 150 149 149 149 150 158 167 174 174 172 180 184 180 178 177 174 173 171 169 168 168 171 171 161 156 155 129 89 77 33 3 6 15 13 9 6 6 9 22 30 19 17 18 8 3
143 154 154 151 145 141 140 137 139 142 146 149 147 143 138 134 131 131 132 134 135 138 141 145 147 148 150 153 155 157 159 162 162 160 159 157 155 154 153 152 152 152 151 150 151 158 165 170 170 169 180 189 188 187 186 185 177 168 165 162 161 164 163 152 136 126 102 48 27 16 3 351 353 7 12 7 5 6 19 32 29 26 24 18 14
148 157 156 153 151 143 143 143 143 148 153 156 155 152 145 137 132 128 130 132 134 137 140 143 146 148 152 155 158 161 163 164 163 161 159 157 155 155 156 155 155 155 153 150 153 160 167 166 162 162 175 190 193 191 191 187 173 166 165 158 158 166 162 148 126 116 40 1 2 6 4 351 349 360 7 10 8 3 13 22 17 22 27 24 16
152 159 160 158 159 155 150 148 151 154 158 161 162 160 151 140 134 130 128 128 131 135 139 143 146 149 152 156 159 161 163 162 161 159 157 157 158 159 159 158 157 156 154 154 155 163 170 168 161 159 168 183 189 187 187 182 172 171 171 159 159 176 177 165 146 148 144 357 353 354 357 350 349 358 6 12 8 360 8 15 11 19 29 17 357
165 164 165 164 166 164 156 153 157 160 162 166 169 166 155 144 138 135 133 131 131 132 137 142 146 149 151 154 158 159 159 159 159 157 156 158 160 161 161 161 162 163 162 161 161 167 170 168 164 158 163 174 176 176 180 181 178 178 173 163 161 178 189 185 168 155 118 17 352 358 359 359 2 4 7 10 12 11 10 11 9 14 24 2 339
182 176 172 169 171 171 165 163 163 164 168 170 172 170 160 150 145 142 138 135 135 133 136 140 142 147 149 151 155 156 155 156 157 157 157 160 160 162 165 167 170 172 171 167 169 172 167 163 163 160 162 167 168 169 173 175 177 180 178 171 166 174 183 170 162 161 130 135 87 44 23 20 19 12 9 2 4 13 6 4 3 0 4 354 340
203 193 181 174 175 176 173 173 171 169 173 175 176 174 168 161 154 151 147 143 141 140 140 142 143 146 148 150 153 155 155 156 158 159 160 161 161 165 170 174 177 178 176 175 180 181 170 160 161 165 165 163 164 163 163 162 165 179 183 173 165 161 163 127 125 167 158 158 74 65 23 3 358 346 356 354 354 4 359 0 5 355 355 355 347
219 210 193 180 178 183 182 181 180 176 177 180 181 179 177 173 167 162 158 154 151 148 147 148 150 152 153 154 156 157 158 159 160 161 164 164 166 170 175 178 180 181 181 181 187 190 178 164 164 170 169 165 162 156 158 165 165 172 173 169 159 133 123 115 107 210 227 259 293 2 298 311 355 333 335 344 353 1 353 356 9 357 348 351 346
228 225 208 190 184 187 190 189 187 185 182 184 186 186 184 181 181 176 169 166 161 157 157 157 159 161 161 162 162 163 163 163 164 165 169 171 172 176 179 183 185 186 187 189 195 200 188 175 172 175 174 171 166 156 155 162 161 157 157 175 168 143 141 128 308 260 187 273 300 324 302 317 360 326 327 337 340 351 348 352 360 348 343 350 346
232 232 223 204 194 192 195 197 194 193 190 187 190 192 191 187 188 188 181 177 173 167 167 167 169 172 172 172 172 171 171 170 171 173 176 179 181 183 185 189 192 194 196 199 205 208 200 188 182 183 183 178 170 162 155 157 161 162 160 175 167 160 181 160 252 263 280 312 304 298 302 326 338 320 331 341 335 341 344 345 347 342 347 355 350
230 231 228 217 209 201 199 204 202 201 199 194 193 194 195 194 192 192 190 186 182 179 178 178 180 183 184 185 184 183 183 182 182 183 185 187 188 189 192 195 198 200 202 207 211 210 203 193 190 192 192 189 180 172 167 159 158 161 157 158 158 177 194 177 238 265 274 283 270 269 304 331 330 318 332 339 339 341 331 331 356 354 349 346 347
230 229 224 218 218 214 205 208 209 208 207 202 200 198 198 199 196 196 194 191 189 188 187 187 189 193 193 195 196 194 194 195 195 194 193 195 195 194 197 198 198 201 203 206 208 202 194 190 193 198 197 195 191 187 183 172 162 163 165 167 172 184 198 199 225 249 243 231 244 274 314 335 316 307 331 337 341 338 325 324 347 3 349 336 355
Height
5884 5884 5884 5886 5886 5886 5887 5888 5888 5889 5889 5890 5891 5892 5893 5894 5894 5895 5896 5897 5898 5899 5899 5900 5901 5901 5901 5902 5901 5901 5904 5903 5901 5902 5903 5903 5904 5905 5906 5906 5906 5905 5905 5906 5906 5907 5907 5907 5906 5906 5906 5906 5907 5908 5908 5908 5909 5909 5910 5910 5910 5910 5910 5910 5910 5909 5909 5910 5910 5909 5908 5907 5907 5907 5907 5907 5907 5907 5907 5907 5907 5908 5908 5908 5908
5885 5884 5885 5887 5887 5888 5888 5889 5889 5889 5890 5890 5892 5893 5893 5894 5895 5896 5897 5898 5899 5899 5900 5900 5901 5900 5900 5902 5902 5902 5904 5903 5903 5903 5903 5904 5905 5906 5907 5906 5906 5905 5906 5907 5907 5907 5908 5908 5908 5907 5907 5908 5908 5909 5909 5909 5910 5910 5911 5911 5912 5912 5911 5911 5911 5910 5910 5910 5910 5910 5909 5908 5907 5908 5908 5908 5908 5908 5908 5908 5908 5909 5909 5909 5909
5887 5886 5887 5889 5889 5889 5889 5889 5890 5890 5891 5891 5892 5893 5893 5894 5895 5897 5898 5898 5899 5899 5900 5900 5900 5900 5901 5903 5903 5903 5904 5904 5904 5904 5904 5905 5906 5907 5907 5907 5906 5906 5907 5907 5907 5908 5908 5909 5909 5908 5909 5909 5910 5910 5910 5911 5911 5912 5912 5912 5913 5913 5912 5912 5912 5911 5910 5910 5911 5911 5910 5909 5909 5909 5909 5909 5909 5909 5909 5909 5909 5909 5910 5910 5910
5888 5888 5889 5889 5890 5890 5890 5891 5891 5891 5892 5892 5893 5893 5894 5895 5896 5897 5898 5898 5899 5899 5900 5900 5901 5902 5903 5904 5904 5905 5906 5905 5905 5904 5905 5906 5906 5907 5907 5907 5907 5907 5908 5908 5908 5909 5909 5909 5909 5909 5910 5910 5911 5911 5912 5912 5912 5913 5913 5914 5914 5914 5913 5913 5913 5911 5911 5911 5911 5911 5911 5910 5910 5910 5910 5909 5909 5909 5910 5910 5910 5910 5911 5911 5911
5889 5890 5891 5890 5891 5891 5892 5892 5892 5893 5893 5893 5894 5894 5894 5895 5896 5897 5898 5898 5899 5900 5900 5901 5902 5903 5903 5904 5905 5906 5906 5905 5905 5904 5905 5907 5907 5907 5908 5908 5908 5908 5908 5909 5909 5910 5910 5910 5910 5910 5911 5912 5912 5912 5913 5913 5913 5914 5915 5915 5915 5915 5915 5914 5913 5912 5911 5911 5912 5912 5912 5911 5911 5911 5910 5910 5910 5910 5911 5911 5911 5911 5912 5912 5913
5891 5891 5892 5891 5892 5892 5893 5893 5893 5893 5893 5894 5895 5895 5896 5897 5897 5898 5898 5899 5900 5901 5902 5903 5903 5903 5903 5904 5905 5906 5905 5904 5905 5905 5906 5908 5908 5908 5909 5909 5909 5909 5910 5910 5910 5911 5911 5911 5911 5911 5912 5913 5913 5913 5914 5914 5915 5915 5916 5916 5916 5916 5916 5915 5913 5912 5912 5912 5913 5913 5913 5912 5912 5912 5911 5911 5912 5912 5912 5912 5912 5913 5913 5913 5914
5891 5892 5892 5892 5893 5893 5894 5894 5894 5894 5894 5894 5895 5896 5897 5898 5899 5899 5900 5901 5902 5903 5903 5904 5904 5903 5904 5904 5905 5905 5904 5905 5905 5905 5907 5908 5909 5909 5910 5910 5909 5910 5911 5911 5911 5912 5912 5912 5911 5911 5912 5913 5914 5914 5915 5915 5916 5916 5917 5917 5917 5917 5916 5915 5914 5913 5913 5913 5914 5913 5913 5913 5913 5913 5913 5913 5913 5913 5913 5913 5914 5914 5914 5914 5914
5892 5893 5893 5893 5893 5894 5895 5895 5895 5894 5894 5895 5896 5897 5898 5899 5900 5901 5901 5902 5902 5903 5903 5903 5904 5904 5904 5904 5904 5904 5905 5906 5906 5906 5907 5908 5909 5910 5911 5911 5910 5911 5911 5912 5912 5912 5912 5912 5912 5912 5913 5914 5914 5915 5915 5916 5916 5917 5918 5918 5917 5917 5916 5915 5915 5914 5914 5914 5914 5914 5914 5914 5914 5914 5914 5914 5914 5914 5914 5915 5915 5915 5915 5915 5915
5894 5894 5894 5894 5894 5895 5895 5895 5895 5895 5895 5895 5896 5897 5898 5899 5900 5901 5902 5902 5902 5902 5902 5902 5903 5904 5904 5904 5905 5906 5906 5906 5907 5907 5907 5908 5909 5910 5911 5911 5911 5911 5912 5913 5913 5913 5913 5912 5912 5913 5913 5914 5914 5915 5915 5916 5916 5917 5918 5918 5917 5917 5916 5916 5915 5915 5914 5915 5915 5915 5915 5915 5915 5915 5915 5915 5915 5915 5915 5916 5916 5916 5916 5916 5916
5895 5895 5895 5896 5896 5896 5896 5896 5896 5896 5896 5896 5897 5898 5899 5900 5901 5901 5901 5902 5902 5902 5903 5903 5904 5904 5905 5905 5906 5907 5906 5906 5907 5908 5908 5908 5909 5910 5911 5911 5911 5912 5913 5914 5914 5913 5913 5913 5913 5914 5914 5915 5915 5915 5916 5916 5917 5918 5918 5918 5917 5917 5917 5916 5916 5916 5915 5916 5916 5916 5916 5916 5916 5916 5916 5916 5916 5916 5916 5917 5917 5917 5917 5917 5917
5895 5895 5895 5896 5896 5896 5896 5897 5897 5897 5897 5897 5898 5899 5900 5900 5901 5901 5901 5901 5902 5903 5904 5904 5904 5904 5905 5905 5906 5907 5907 5907 5907 5908 5908 5908 5909 5910 5911 5911 5911 5912 5913 5914 5915 5914 5914 5914 5914 5915 5915 5915 5916 5916 5917 5917 5918 5918 5919 5918 5917 5917 5917 5917 5917 5917 5917 5917 5917 5917 5917 5917 5917 5917 5917 5917 5917 5917 5917 5918 5918 5918 5918 5918 5918
5896 5896 5895 5896 5896 5896 5896 5897 5897 5898 5898 5898 5898 5899 5900 5900 5901 5902 5902 5902 5903 5904 5905 5905 5905 5906 5907 5906 5907 5908 5907 5906 5907 5908 5909 5909 5909 5910 5910 5911 5912 5913 5914 5915 5915 5915 5915 5915 5915 5916 5916 5917 5917 5917 5918 5918 5919 5919 5919 5919 5918 5918 5918 5918 5918 5918 5918 5918 5918 5918 5918 5918 5919 5918 5918 5918 5918 5919 5919 5919 5920 5920 5920 5919 5919
5897 5896 5896 5896 5896 5896 5897 5897 5897 5898 5898 5898 5899 5900 5900 5901 5901 5901 5902 5903 5903 5904 5905 5905 5906 5908 5908 5907 5907 5907 5906 5906 5907 5908 5910 5911 5912 5912 5912 5913 5913 5913 5914 5915 5916 5916 5916 5916 5917 5917 5918 5919 5919 5919 5919 5920 5920 5920 5921 5920 5920 5919 5919 5919 5919 5920 5919 5920 5919 5919 5919 5920 5920 5919 5919 5919 5919 5920 5920 5921 5921 5921 5921 5920 5920
5897 5897 5897 5897 5897 5897 5897 5897 5897 5898 5898 5899 5899 5900 5900 5901 5901 5902 5902 5903 5904 5905 5906 5906 5907 5908 5909 5908 5907 5906 5905 5905 5907 5908 5910 5912 5914 5913 5914 5915 5915 5915 5915 5915 5916 5916 5917 5917 5918 5918 5919 5920 5920 5920 5921 5921 5921 5921 5922 5921 5921 5921 5920 5920 5920 5920 5920 5920 5920 5920 5921 5921 5921 5921 5920 5920 5921 5921 5921 5922 5922 5922 5922 5922 5922
5898 5898 5898 5898 5898 5898 5898 5898 5898 5898 5898 5899 5900 5900 5900 5900 5901 5902 5903 5904 5905 5905 5906 5907 5908 5909 5910 5909 5907 5905 5904 5905 5907 5909 5910 5912 5913 5913 5913 5916 5917 5917 5917 5916 5916 5917 5917 5917 5918 5919 5920 5920 5921 5921 5921 5922 5922 5923 5923 5922 5922 5922 5921 5921 5921 5921 5921 5921 5921 5921 5922 5922 5922 5922 5922 5922 5922 5922 5923 5923 5923 5923 5923 5923 5923
5898 5899 5899 5899 5899 5899 5899 5899 5899 5899 5899 5899 5900 5900 5901 5901 5901 5902 5903 5904 5904 5905 5907 5907 5908 5909 5909 5908 5906 5906 5906 5907 5909 5910 5911 5912 5913 5913 5913 5915 5917 5918 5919 5918 5917 5917 5918 5918 5919 5919 5920 5921 5922 5922 5923 5923 5924 5924 5924 5923 5923 5923 5922 5922 5922 5922 5922 5922 5922 5923 5923 5923 5923 5923 5923 5923 5923 5923 5924 5924 5924 5924 5924 5924 5924
5899 5900 5900 5900 5899 5899 5900 5900 5900 5900 5900 5900 5900 5900 5901 5902 5902 5902 5903 5904 5905 5906 5907 5907 5908 5908 5908 5907 5906 5907 5907 5908 5910 5911 5912 5913 5913 5913 5914 5915 5917 5919 5920 5919 5918 5918 5919 5919 5920 5920 5921 5922 5923 5923 5924 5924 5924 5924 5924 5924 5924 5923 5923 5923 5923 5923 5923 5923 5923 5924 5924 5924 5924 5924 5924 5924 5925 5925 5925 5925 5926 5926 5926 5926 5925
5899 5900 5900 5900 5900 5900 5900 5900 5900 5901 5901 5900 5899 5901 5902 5903 5903 5902 5903 5904 5905 5906 5906 5907 5908 5907 5907 5906 5905 5907 5908 5908 5910 5911 5912 5913 5914 5914 5915 5916 5917 5920 5921 5920 5919 5919 5919 5920 5921 5921 5922 5923 5924 5924 5924 5925 5925 5925 5925 5925 5924 5924 5924 5924 5924 5924 5924 5924 5925 5925 5925 5925 5925 5925 5925 5926 5926 5926 5926 5927 5927 5927 5927 5927 5926
5900 5901 5900 5901 5901 5900 5900 5900 5901 5901 5901 5900 5899 5901 5903 5903 5903 5903 5904 5905 5905 5905 5906 5906 5906 5906 5905 5905 5905 5907 5908 5909 5910 5911 5913 5914 5915 5916 5916 5917 5918 5920 5920 5920 5920 5920 5920 5921 5921 5922 5923 5924 5924 5925 5925 5925 5925 5925 5925 5925 5925 5925 5925 5925 5925 5925 5926 5926 5926 5926 5926 5926 5926 5926 5927 5927 5927 5927 5928 5928 5928 5928 5928 5928 5927
5901 5901 5901 5901 5901 5901 5901 5901 5901 5901 5901 5900 5900 5901 5902 5902 5903 5904 5904 5905 5905 5904 5905 5905 5904 5904 5904 5904 5906 5908 5908 5909 5910 5911 5913 5914 5915 5917 5917 5918 5919 5919 5920 5920 5920 5920 5921 5921 5922 5923 5924 5925 5925 5925 5926 5926 5925 5925 5926 5926 5926 5926 5926 5926 5927 5926 5927 5927 5927 5928 5928 5928 5927 5928 5928 5928 5929 5929 5929 5929 5929 5929 5929 5929 5928
5901 5901 5901 5901 5901 5901 5901 5901 5901 5901 5901 5901 5901 5901 5901 5902 5902 5903 5903 5903 5903 5902 5902 5903 5903 5904 5904 5905 5907 5908 5908 5909 5910 5911 5913 5914 5915 5917 5918 5918 5918 5919 5920 5920 5921 5921 5921 5922 5922 5923 5925 5925 5926 5926 5926 5926 5926 5926 5926 5926 5927 5927 5927 5928 5928 5928 5928 5928 5928 5929 5929 5929 5929 5929 5929 5929 5930 5930 5930 5930 5930 5930 5930 5930 5929
5902 5902 5902 5902 5902 5901 5901 5900 5900 5900 5900 5900 5901 5900 5901 5902 5902 5901 5901 5901 5901 5901 5900 5901 5903 5904 5904 5905 5907 5908 5908 5909 5910 5911 5913 5914 5915 5916 5918 5918 5919 5919 5920 5921 5921 5921 5922 5922 5923 5924 5925 5926 5926 5927 5927 5927 5927 5927 5927 5927 5927 5928 5928 5928 5929 5928 5929 5929 5930 5930 5930 5930 5930 5930 5930 5930 5931 5931 5931 5931 5931 5931 5931 5931 5930
5902 5902 5902 5902 5902 5901 5901 5900 5900 5900 5900 5900 5900 5899 5900 5901 5901 5900 5900 5900 5899 5899 5900 5900 5902 5903 5904 5906 5907 5908 5908 5908 5910 5912 5913 5914 5915 5916 5918 5918 5919 5920 5920 5921 5921 5922 5922 5922 5923 5924 5925 5926 5927 5927 5927 5927 5927 5927 5928 5928 5928 5929 5929 5929 5930 5930 5930 5930 5931 5931 5931 5931 5931 5931 5931 5931 5931 5932 5932 5932 5932 5932 5932 5932 5931
5902 5902 5902 5902 5902 5901 5901 5900 5899 5899 5899 5900 5900 5899 5900 5900 5900 5900 5899 5899 5898 5897 5898 5899 5902 5902 5904 5906 5907 5908 5908 5908 5910 5911 5912 5914 5916 5917 5918 5919 5919 5920 5921 5921 5922 5922 5922 5923 5923 5925 5926 5926 5927 5927 5927 5927 5928 5928 5928 5929 5929 5929 5930 5930 5931 5931 5931 5932 5932 5932 5932 5932 5932 5932 5932 5932 5932 5932 5932 5932 5932 5932 5932 5932 5932
5902 5902 5902 5902 5902 5901 5900 5900 5899 5899 5899 5900 5900 5899 5899 5900 5900 5900 5899 5899 5898 5897 5896 5899 5903 5902 5903 5906 5906 5907 5908 5909 5910 5911 5913 5914 5916 5917 5918 5919 5920 5921 5922 5922 5922 5922 5922 5923 5924 5925 5926 5927 5927 5927 5927 5928 5928 5929 5929 5929 5930 5930 5931 5931 5931 5932 5932 5933 5933 5933 5933 5933 5933 5933 5933 5933 5933 5933 5933 5933 5933 5932 5932 5932 5932
5903 5903 5902 5902 5902 5901 5900 5900 5899 5899 5899 5900 5899 5899 5899 5900 5900 5900 5900 5899 5898 5898 5895 5898 5903 5903 5904 5905 5906 5907 5908 5909 5910 5911 5913 5914 5916 5917 5918 5919 5920 5921 5922 5922 5922 5922 5922 5923 5924 5925 5926 5927 5928 5928 5928 5929 5929 5929 5930 5930 5931 5931 5931 5932 5932 5933 5934 5934 5934 5934 5934 5934 5934 5934 5934 5934 5934 5934 5933 5933 5933 5933 5933 5933 5933
5903 5903 5903 5902 5902 5901 5901 5900 5899 5899 5899 5899 5899 5899 5899 5900 5900 5900 5900 5899 5898 5898 5897 5899 5902 5903 5904 5905 5906 5907 5908 5909 5911 5912 5913 5914 5916 5917 5919 5920 5921 5922 5922 5922 5922 5923 5923 5924 5925 5926 5927 5928 5928 5928 5929 5929 5930 5930 5931 5931 5932 5933 5932 5933 5933 5934 5935 5935 5935 5935 5935 5935 5935 5935 5935 5935 5935 5934 5934 5933 5933 5933 5933 5933 5933
5904 5904 5903 5903 5902 5901 5901 5901 5900 5900 5899 5899 5899 5899 5899 5900 5900 5900 5901 5900 5899 5899 5898 5900 5902 5902 5903 5905 5907 5907 5908 5909 5910 5912 5914 5915 5916 5918 5919 5920 5921 5922 5922 5923 5923 5923 5924 5925 5926 5927 5928 5928 5929 5929 5930 5930 5931 5931 5932 5933 5933 5934 5933 5934 5934 5935 5936 5936 5936 5936 5936 5936 5936 5936 5936 5936 5935 5935 5934 5934 5933 5933 5933 5933 5933
5905 5905 5904 5903 5903 5902 5902 5901 5901 5901 5900 5900 5899 5899 5899 5899 5900 5900 5901 5901 5901 5900 5900 5902 5903 5903 5903 5905 5907 5907 5908 5910 5911 5913 5914 5915 5917 5918 5920 5921 5922 5922 5922 5923 5923 5924 5925 5926 5927 5928 5928 5929 5930 5930 5931 5931 5932 5933 5933 5934 5934 5935 5935 5935 5935 5935 5936 5936 5937 5937 5937 5937 5937 5937 5937 5936 5936 5935 5935 5934 5933 5933 5933 5933 5933
5905 5905 5905 5904 5904 5903 5903 5902 5902 5901 5901 5901 5900 5900 5900 5900 5900 5900 5901 5902 5902 5901 5901 5902 5903 5904 5905 5906 5908 5907 5908 5910 5912 5913 5914 5916 5917 5919 5920 5921 5922 5923 5923 5923 5923 5924 5925 5927 5928 5929 5929 5930 5930 5931 5931 5932 5933 5933 5934 5934 5935 5935 5936 5936 5936 5937 5937 5937 5937 5938 5938 5938 5938 5938 5937 5937 5936 5936 5935 5934 5934 5933 5932 5932 5932
5906 5905 5905 5905 5904 5904 5904 5903 5903 5902 5902 5902 5902 5902 5901 5901 5901 5901 5902 5903 5903 5903 5903 5904 5904 5905 5906 5907 5909 5909 5909 5911 5913 5914 5915 5916 5918 5919 5921 5922 5922 5923 5923 5924 5924 5925 5926 5928 5929 5929 5930 5931 5931 5932 5932 5933 5933 5934 5935 5935 5936 5936 5936 5937 5937 5938 5938 5937 5938 5939 5939 5939 5938 5938 5938 5937 5936 5936 5935 5934 5934 5933 5932 5932 5932
5906 5906 5906 5906 5905 5905 5904 5904 5904 5904 5903 5903 5903 5903 5903 5903 5903 5903 5903 5904 5904 5905 5905 5906 5906 5906 5907 5908 5909 5909 5910 5912 5913 5914 5916 5917 5919 5920 5921 5922 5923 5923 5924 5924 5925 5926 5928 5929 5930 5930 5931 5931 5932 5932 5933 5933 5934 5935 5936 5936 5936 5937 5937 5938 5938 5939 5938 5938 5939 5939 5939 5939 5939 5938 5938 5937 5936 5936 5935 5934 5934 5933 5932 5932 5931
5907 5906 5906 5906 5906 5906 5905 5905 5905 5905 5904 5904 5904 5904 5904 5904 5904 5904 5905 5905 5906 5907 5907 5908 5908 5908 5909 5909 5909 5910 5911 5913 5914 5915 5917 5918 5920 5921 5922 5923 5924 5924 5925 5926 5927 5928 5929 5930 5931 5931 5932 5932 5932 5933 5934 5934 5935 5936 5937 5937 5937 5937 5938 5938 5938 5939 5939 5939 5939 5939 5939 5939 5939 5938 5938 5937 5937 5936 5935 5934 5934 5933 5932 5932 5931
5907 5907 5907 5907 5907 5907 5906 5906 5906 5906 5906 5906 5905 5905 5905 5906 5906 5906 5906 5907 5907 5908 5909 5909 5910 5910 5911 5911 5911 5912 5913 5914 5915 5917 5918 5919 5920 5922 5923 5924 5925 5926 5926 5927 5928 5929 5930 5931 5932 5932 5932 5933 5933 5934 5935 5935 5936 5937 5937 5937 5938 5938 5938 5939 5939 5939 5939 5939 5939 5939 5938 5938 5938 5938 5938 5937 5936 5936 5935 5935 5934 5933 5933 5932 5931
5908 5908 5908 5908 5908 5908 5908 5907 5907 5907 5907 5907 5907 5907 5907 5907 5907 5908 5908 5908 5909 5909 5910 5911 5911 5912 5912 5913 5913 5914 5915 5915 5917 5918 5919 5920 5921 5923 5924 5925 5926 5927 5928 5929 5930 5931 5931 5932 5932 5933 5933 5934 5934 5935 5935 5936 5936 5937 5938 5938 5939 5939 5939 5940 5940 5940 5940 5939 5939 5939 5938 5938 5937 5937 5937 5937 5937 5936 5935 5935 5934 5933 5933 5932 5931
5908 5908 5909 5909 5909 5909 5909 5909 5908 5908 5908 5908 5908 5908 5908 5908 5909 5909 5909 5910 5910 5911 5911 5912 5913 5913 5914 5915 5915 5916 5916 5917 5918 5919 5920 5921 5923 5924 5925 5926 5927 5928 5929 5930 5931 5932 5932 5933 5934 5934 5934 5935 5935 5936 5936 5937 5937 5938 5939 5939 5940 5940 5940 5941 5941 5941 5941 5941 5941 5940 5939 5939 5938 5937 5938 5939 5939 5937 5936 5935 5934 5934 5933 5932 5931
5909 5909 5909 5910 5910 5910 5910 5910 5910 5909 5909 5909 5909 5909 5909 5909 5910 5910 5910 5911 5911 5912 5912 5913 5914 5915 5916 5916 5917 5917 5918 5918 5919 5920 5921 5923 5924 5926 5926 5927 5928 5929 5931 5931 5932 5933 5933 5934 5934 5935 5935 5936 5936 5936 5937 5938 5938 5939 5940 5940 5940 5941 5941 5941 5941 5941 5942 5942 5941 5941 5941 5940 5940 5939 5939 5941 5941 5939 5938 5937 5936 5935 5934 5933 5932
5909 5909 5910 5910 5911 5911 5911 5911 5911 5911 5910 5910 5910 5910 5910 5910 5911 5911 5912 5912 5912 5913 5914 5914 5915 5916 5917 5917 5918 5919 5919 5920 5921 5922 5923 5924 5925 5927 5927 5929 5930 5931 5932 5932 5933 5934 5934 5935 5935 5935 5936 5936 5936 5937 5937 5938 5939 5940 5940 5941 5941 5941 5941 5942 5942 5941 5942 5942 5942 5942 5941 5941 5941 5940 5940 5941 5941 5940 5940 5939 5938 5936 5935 5934 5933
5910 5910 5910 5911 5911 5911 5911 5911 5912 5912 5912 5912 5911 5911 5911 5911 5911 5912 5912 5913 5913 5914 5915 5915 5916 5917 5918 5919 5919 5920 5921 5922 5923 5924 5924 5925 5926 5927 5929 5930 5931 5932 5933 5933 5934 5935 5935 5935 5936 5936 5937 5937 5937 5938 5938 5939 5940 5940 5941 5942 5942 5942 5941 5943 5943 5942 5942 5943 5943 5942 5942 5942 5942 5942 5941 5942 5942 5941 5941 5940 5938 5937 5936 5935 5934
5910 5910 5911 5911 5912 5912 5912 5912 5912 5912 5913 5913 5913 5912 5912 5912 5912 5913 5913 5914 5914 5915 5915 5916 5917 5918 5919 5920 5921 5921 5922 5923 5924 5925 5926 5926 5927 5929 5930 5931 5932 5932 5933 5934 5935 5935 5936 5936 5936 5937 5937 5938 5938 5939 5939 5940 5941 5941 5942 5942 5943 5943 5943 5943 5944 5943 5943 5943 5944 5943 5943 5942 5943 5942 5943 5943 5941 5941 5940 5940 5939 5939 5937 5936 5935
5911 5911 5911 5911 5912 5912 5913 5913 5913 5913 5913 5914 5914 5914 5913 5913 5913 5914 5914 5915 5915 5916 5916 5917 5918 5919 5920 5921 5921 5922 5923 5924 5925 5926 5927 5928 5929 5930 5931 5932 5933 5933 5934 5934 5935 5936 5936 5937 5937 5937 5938 5939 5939 5940 5940 5941 5941 5942 5943 5943 5943 5943 5944 5944 5944 5944 5944 5944 5944 5944 5944 5943 5943 5943 5943 5942 5941 5940 5939 5939 5940 5939 5938 5937 5936
5911 5912 5912 5912 5912 5913 5913 5914 5914 5914 5914 5914 5915 5915 5915 5915 5915 5915 5915 5916 5916 5917 5917 5918 5919 5920 5920 5921 5922 5923 5924 5925 5926 5927 5928 5929 5930 5931 5932 5933 5934 5934 5935 5935 5936 5936 5937 5937 5938 5938 5939 5939 5940 5940 5941 5942 5942 5943 5943 5944 5944 5944 5944 5944 5944 5945 5945 5945 5945 5945 5945 5944 5944 5944 5943 5943 5941 5940 5940 5940 5941 5939 5937 5936 5935
5912 5912 5912 5912 5913 5913 5914 5914 5914 5915 5915 5915 5916 5916 5916 5916 5916 5916 5917 5917 5918 5918 5919 5919 5920 5920 5921 5922 5923 5924 5925 5926 5927 5928 5929 5930 5931 5932 5933 5934 5935 5935 5936 5936 5937 5937 5938 5938 5938 5939 5939 5940 5940 5941 5942 5942 5943 5943 5944 5944 5944 5944 5945 5945 5945 5945 5945 5945 5945 5945 5945 5945 5944 5944 5943 5943 5942 5941 5941 5940 5939 5938 5937 5936 5935
5912 5912 5913 5913 5913 5913 5914 5915 5915 5916 5916 5916 5917 5917 5918 5918 5918 5918 5918 5919 5919 5919 5920 5920 5921 5921 5922 5923 5924 5925 5926 5927 5928 5929 5930 5932 5933 5934 5934 5935 5936 5936 5937 5937 5938 5938 5939 5939 5939 5939 5939 5940 5941 5942 5942 5943 5943 5944 5944 5944 5944 5945 5945 5945 5945 5945 5945 5945 5945 5945 5945 5945 5945 5944 5943 5942 5942 5942 5941 5940 5939 5937 5937 5937 5937
5912 5912 5913 5913 5914 5914 5915 5915 5916 5916 5917 5917 5918 5918 5919 5920 5920 5920 5920 5920 5921 5921 5921 5922 5922 5923 5923 5924 5925 5925 5927 5928 5929 5930 5931 5933 5934 5935 5935 5936 5937 5937 5937 5938 5938 5939 5939 5939 5939 5940 5940 5941 5942 5942 5943 5943 5944 5944 5945 5945 5945 5945 5945 5945 5945 5945 5945 5945 5945 5944 5944 5944 5944 5944 5943 5942 5942 5941 5941 5941 5940 5939 5939 5938 5938
5912 5912 5913 5913 5914 5914 5915 5916 5916 5917 5917 5918 5918 5919 5920 5921 5921 5921 5921 5922 5922 5922 5923 5923 5924 5924 5925 5925 5926 5927 5928 5929 5930 5931 5932 5933 5934 5935 5936 5937 5937 5938 5938 5938 5939 5939 5940 5940 5940 5940 5941 5941 5942 5943 5944 5944 5944 5944 5945 5945 5945 5945 5945 5945 5945 5945 5945 5945 5945 5944 5944 5944 5944 5943 5943 5942 5941 5942 5942 5941 5941 5940 5938 5937 5937
5912 5912 5913 5913 5914 5914 5915 5916 5917 5917 5918 5918 5919 5920 5920 5921 5921 5922 5922 5923 5923 5924 5924 5925 5925 5926 5926 5926 5927 5928 5929 5930 5931 5932 5933 5934 5935 5936 5936 5937 5937 5938 5938 5939 5939 5940 5940 5940 5940 5940 5941 5941 5942 5943 5944 5945 5945 5945 5945 5945 5945 5945 5945 5945 5945 5945 5945 5945 5945 5945 5944 5944 5944 5943 5942 5941 5941 5942 5942 5942 5942 5941 5939 5938 5937
5912 5912 5913 5913 5913 5914 5915 5916 5917 5918 5918 5919 5919 5920 5921 5921 5922 5922 5923 5923 5924 5924 5925 5926 5926 5927 5927 5928 5928 5929 5930 5931 5932 5933 5934 5935 5936 5936 5937 5937 5938 5938 5938 5939 5939 5940 5940 5940 5940 5941 5941 5942 5943 5943 5944 5944 5945 5945 5945 5945 5945 5945 5945 5945 5945 5945 5945 5945 5945 5945 5944 5944 5944 5943 5942 5941 5941 5942 5942 5942 5942 5942 5941 5939 5938
5911 5912 5913 5913 5913 5914 5915 5916 5917 5918 5919 5919 5920 5920 5921 5922 5923 5923 5924 5924 5924 5925 5926 5927 5927 5928 5928 5929 5929 5930 5931 5932 5933 5934 5934 5935 5936 5937 5937 5938 5938 5938 5939 5939 5940 5940 5940 5940 5940 5941 5942 5942 5943 5943 5944 5944 5944 5945 5945 5945 5945 5945 5945 5945 5944 5944 5945 5946 5945 5944 5944 5943 5943 5943 5942 5942 5942 5942 5942 5942 5942 5941 5940 5939 5938
5910 5912 5913 5913 5913 5914 5915 5915 5917 5918 5919 5919 5920 5921 5921 5922 5923 5923 5924 5925 5925 5926 5926 5927 5928 5929 5929 5930 5931 5931 5932 5933 5933 5934 5935 5936 5936 5937 5937 5938 5938 5938 5939 5939 5940 5940 5940 5941 5941 5941 5942 5943 5943 5943 5943 5944 5944 5945 5945 5945 5945 5945 5945 5945 5944 5943 5945 5946 5945 5944 5943 5942 5942 5943 5942 5941 5941 5941 5942 5942 5942 5942 5941 5939 5939
5909 5911 5912 5913 5913 5913 5914 5915 5916 5917 5918 5919 5920 5921 5921 5922 5923 5924 5924 5925 5926 5926 5927 5927 5928 5929 5930 5930 5931 5932 5933 5933 5934 5935 5935 5936 5937 5937 5937 5938 5938 5938 5939 5939 5940 5940 5941 5941 5941 5942 5943 5943 5943 5943 5943 5944 5945 5945 5945 5945 5945 5945 5945 5944 5944 5943 5944 5945 5944 5944 5944 5943 5943 5943 5942 5942 5941 5941 5942 5941 5941 5943 5943 5941 5938